Libertyville, IL

6:04 AM CDT on September 30, 2016 (GMT -0500)
Chicago Executive

Weather History for KPWK - October, 2014

Change the Weather History Date:

Tuesday, October 14, 2014

  Actual Average Record
Temperature  
Mean Temperature 60 °F 53 °F  
Max Temperature 67 °F 62 °F 75 °F (2005)
Min Temperature 53 °F 43 °F 33 °F (2002)
Degree Days  
Heating Degree Days 5 13  
Month to date heating degree days 144 147  
Since 1 July heating degree days 263 259  
Cooling Degree Days 0 0  
Month to date cooling degree days 4 11  
Year to date cooling degree days 780 789  
Growing Degree Days 10 (Base 50)    
Moisture  
Dew Point 57 °F    
Average Humidity 89    
Maximum Humidity 93    
Minimum Humidity 80    
Precipitation  
Precipitation 1.16 in 0.09 in 1.16 in (2014)
Month to date precipitation 3.32 1.40  
Year to date precipitation 30.75 27.09  
Sea Level Pressure  
Sea Level Pressure 29.56 in    
Wind  
Wind Speed 8 mph (ENE)    
Max Wind Speed 21 mph    
Max Gust Speed 28 mph    
Visibility 5 miles    
Events Rain    
T = Trace of Precipitation, MM = Missing Value Source: NWS Daily Summary

Daily Weather History Graph

Daily Weather History Graph

Search for Another Location

Airport or City:

Trip Planner

Search our weather history database for the weather conditions in past years. The results will help you decide how hot, cold, wet, or windy it might be!

Date:

Astronomy

Oct. 14, 2014 Rise Set
Actual Time 7:03 AM CDT 6:11 PM CDT
Civil Twilight 6:34 AM CDT 6:39 PM CDT
Nautical Twilight 6:02 AM CDT 7:11 PM CDT
Astronomical Twilight 5:30 AM CDT 7:44 PM CDT
Moon 11:13 PM CDT (10/14) 1:06 PM CDT (10/14)
Length of Visible Light 12h 04m
Length of Day
11h 08m
Waning Gibbous, 61% of the Moon is Illuminated
Oct 14
Waning Gibbous
Oct 15
Last Quarter
Oct 23
New
Oct 30
First Quarter
Nov 6
Full

Hourly Weather History & Observations

Time (CDT) Temp. Dew Point Humidity Pressure Visibility Wind Dir Wind Speed Gust Speed Precip Events Conditions
12:41 AM 66.9 °F 62.1 °F 84% 29.54 in 10.0 mi SSE 21.9 mph 29.9 mph N/A   Overcast
12:52 AM 66.9 °F 62.1 °F 84% 29.52 in 10.0 mi South 18.4 mph - N/A   Overcast
1:52 AM 66.0 °F 60.1 °F 81% 29.52 in 10.0 mi South 18.4 mph - N/A   Overcast
2:52 AM 66.0 °F 60.1 °F 81% 29.52 in 10.0 mi South 17.3 mph - N/A   Overcast
3:52 AM 64.9 °F 60.1 °F 84% 29.51 in 7.0 mi South 11.5 mph - 0.01 in Rain Light Rain
4:52 AM 64.0 °F 60.1 °F 87% 29.52 in 10.0 mi South 9.2 mph - 0.01 in   Overcast
5:52 AM 63.0 °F 60.1 °F 90% 29.52 in 8.0 mi SE 6.9 mph - 0.00 in Rain Light Rain
6:52 AM 63.0 °F 60.1 °F 90% 29.50 in 9.0 mi ESE 4.6 mph - 0.00 in Rain Light Rain
7:52 AM 62.1 °F 57.9 °F 86% 29.51 in 10.0 mi Calm Calm - 0.00 in   Overcast
8:52 AM 62.1 °F 59.0 °F 90% 29.50 in 6.0 mi NNE 3.5 mph - 0.04 in Rain Light Rain
9:23 AM 62.1 °F 59.0 °F 90% 29.54 in 2.5 mi East 4.6 mph - 0.06 in Rain Rain
9:52 AM 62.1 °F 59.0 °F 90% 29.53 in 5.0 mi SE 4.6 mph - 0.10 in Rain Light Rain
10:05 AM 62.1 °F 60.1 °F 93% 29.50 in 2.5 mi North 4.6 mph - 0.03 in Rain Light Rain
10:17 AM 62.1 °F 59.0 °F 90% 29.46 in 4.0 mi NE 10.4 mph - 0.04 in Rain Light Rain
10:34 AM 62.1 °F 60.1 °F 93% 29.51 in 7.0 mi SE 8.1 mph - 0.04 in   Mostly Cloudy
10:52 AM 62.1 °F 59.0 °F 90% 29.50 in 9.0 mi SE 6.9 mph - 0.04 in   Overcast
11:52 AM 64.0 °F 57.9 °F 80% 29.50 in 10.0 mi East 9.2 mph - N/A   Overcast
12:52 PM 63.0 °F 57.0 °F 81% 29.48 in 9.0 mi East 9.2 mph - N/A   Overcast
1:24 PM 62.1 °F 59.0 °F 90% 29.49 in 2.5 mi East 4.6 mph - 0.00 in Rain Light Rain
1:29 PM 62.1 °F 59.0 °F 90% 29.49 in 1.8 mi East 6.9 mph - 0.03 in Rain Light Rain
1:39 PM 62.1 °F 59.0 °F 90% 29.49 in 2.0 mi ENE 9.2 mph - 0.03 in Rain Light Rain
1:52 PM 62.1 °F 57.9 °F 86% 29.49 in 10.0 mi East 9.2 mph - 0.03 in   Overcast
2:32 PM 61.0 °F 57.9 °F 90% 29.50 in 2.0 mi East 9.2 mph - 0.03 in Rain Light Rain
2:39 PM 61.0 °F 57.9 °F 90% 29.51 in 3.0 mi ESE 8.1 mph - 0.03 in Rain Light Rain
2:52 PM 61.0 °F 57.9 °F 90% 29.52 in 3.0 mi East 8.1 mph - 0.06 in Rain Rain
2:59 PM 61.0 °F 57.9 °F 90% 29.52 in 2.5 mi ESE 5.8 mph - 0.01 in Rain Light Rain
3:14 PM 61.0 °F 57.9 °F 90% 29.53 in 6.0 mi East 6.9 mph - 0.03 in Rain Light Rain
3:21 PM 61.0 °F 57.9 °F 90% 29.53 in 4.0 mi ESE 5.8 mph - 0.04 in Rain Light Rain
3:29 PM 61.0 °F 57.9 °F 90% 29.53 in 2.0 mi North - - 0.06 in Rain Rain
3:32 PM 61.0 °F 57.9 °F 90% 29.53 in 3.0 mi East 5.8 mph - 0.06 in Rain Light Rain
3:52 PM 61.0 °F 57.9 °F 90% 29.53 in 2.5 mi East 5.8 mph - 0.10 in Rain Light Rain
4:22 PM 61.0 °F 57.0 °F 87% 29.55 in 10.0 mi East 5.8 mph - 0.00 in   Overcast
4:52 PM 60.1 °F 57.0 °F 90% 29.55 in 10.0 mi ENE 6.9 mph - 0.00 in   Overcast
5:12 PM 60.1 °F 57.0 °F 90% 29.56 in 6.0 mi NE 6.9 mph - N/A   Overcast
5:48 PM 60.8 °F 57.2 °F 88% 29.57 in 2.0 mi ENE 10.4 mph - 0.01 in Rain Light Rain
5:52 PM 60.1 °F 57.0 °F 90% 29.57 in 2.0 mi ENE 8.1 mph - 0.02 in Rain Light Rain
6:35 PM 60.1 °F 57.0 °F 90% 29.58 in 2.0 mi NE 8.1 mph - 0.03 in Rain Light Rain
6:52 PM 60.1 °F 57.0 °F 90% 29.59 in 2.0 mi NE 6.9 mph - 0.05 in Rain Light Rain
6:59 PM 60.1 °F 57.0 °F 90% 29.59 in 6.0 mi NE 8.1 mph - 0.01 in Rain Light Rain
7:15 PM 60.1 °F 57.0 °F 90% 29.60 in 4.0 mi NE 8.1 mph - 0.06 in Rain Rain
7:44 PM 57.0 °F 55.0 °F 93% 29.63 in 2.5 mi ESE 6.9 mph - 0.24 in Rain Heavy Rain
7:52 PM 57.0 °F 54.0 °F 89% 29.63 in 3.0 mi ESE 4.6 mph - 0.29 in Rain Rain
8:52 PM 55.9 °F 52.0 °F 87% 29.66 in 6.0 mi North 10.4 mph - 0.25 in Rain Light Rain
9:01 PM 55.9 °F 52.0 °F 87% 29.66 in 7.0 mi NNE 9.2 mph - 0.02 in Rain Light Rain
9:31 PM 55.0 °F 51.1 °F 86% 29.67 in 5.0 mi North 9.2 mph - 0.05 in Rain Light Rain
9:39 PM 54.0 °F 51.1 °F 90% 29.68 in 5.0 mi North 10.4 mph - 0.06 in Rain Light Rain
9:52 PM 54.0 °F 51.1 °F 90% 29.68 in 4.0 mi North 9.2 mph - 0.07 in Rain Light Rain
10:15 PM 54.0 °F 51.1 °F 90% 29.68 in 3.0 mi North 8.1 mph - 0.02 in Rain Light Rain
10:29 PM 54.0 °F 51.1 °F 90% 29.67 in 4.0 mi North 10.4 mph - 0.03 in Rain Light Rain
10:52 PM 53.1 °F 51.1 °F 93% 29.67 in 4.0 mi North 8.1 mph 17.3 mph 0.04 in Rain Light Rain
11:17 PM 53.1 °F 51.1 °F 93% 29.67 in 4.0 mi North 10.4 mph - 0.01 in Rain Light Rain
11:52 PM 53.1 °F 50.0 °F 89% 29.68 in 4.0 mi North 8.1 mph - 0.03 in Rain Light Rain